OpenBCM V1.13 (Linux)

Packet Radio Mailbox

DB0FHN

[JN59NK Nuernberg]

 Login: GUEST





  
CX2SA  > KEPS     17.09.04 05:33l 207 Lines 5448 Bytes #999 (0) @ AMSAT
BID : ORB04260.W
Read: GUEST
Subj: Orbital Elements  04260.WEATHER
Path: DB0FHN<DB0FOR<DB0MRW<OK0PPL<DB0RES<ON0AR<EB2BJX<ED1ZAC<CX2SA
Sent: 040917/0326Z @:CX2SA.LAV.URY.SA #:14919 [Minas] FBB7.00e $:ORB04260.W
From: CX2SA@CX2SA.LAV.URY.SA
To  : KEPS@AMSAT


HR AMSAT ORBITAL ELEMENTS FOR WEATHER SATELLITES
FROM WA5QGD FORT WORTH,TX September 16, 2004
SEND SUBSCRIBE/UNSUBSCRIBE TO majordomo@amsat.org ONLY
BID: ORB04260.W
TO ALL RADIO AMATEURS BT

Satellite: NOAA-10
Catalog number: 16969
Epoch time:      04260.49720037
Element set:     395
Inclination:       98.7593 deg
RA of node:       259.6831 deg
Eccentricity:    0.0012031
Arg of perigee:   206.1061 deg
Mean anomaly:     153.9514 deg
Mean motion:   14.27211912 rev/day
Decay rate:       -3.3e-07 rev/day^2
Epoch rev:           93605
Checksum:              290

Satellite: NOAA-11
Catalog number: 19531
Epoch time:      04260.45288056
Element set:     252
Inclination:       98.8639 deg
RA of node:       343.7396 deg
Eccentricity:    0.0011546
Arg of perigee:    11.5467 deg
Mean anomaly:     348.5961 deg
Mean motion:   14.14727376 rev/day
Decay rate:       -8.9e-07 rev/day^2
Epoch rev:           82422
Checksum:              324

Satellite: NOAA-12
Catalog number: 21263
Epoch time:      04260.49492047
Element set:     739
Inclination:       98.6761 deg
RA of node:       247.3359 deg
Eccentricity:    0.0013360
Arg of perigee:   141.6673 deg
Mean anomaly:     218.5462 deg
Mean motion:   14.25412381 rev/day
Decay rate:       1.53e-06 rev/day^2
Epoch rev:           69325
Checksum:              301

Satellite: MET-3/5
Catalog number: 21655
Epoch time:      04260.60909293
Element set:     649
Inclination:       82.5604 deg
RA of node:       351.9303 deg
Eccentricity:    0.0012607
Arg of perigee:   194.4048 deg
Mean anomaly:     165.6717 deg
Mean motion:   13.16996064 rev/day
Decay rate:        5.1e-07 rev/day^2
Epoch rev:           62930
Checksum:              306

Satellite: MET-2/21
Catalog number: 22782
Epoch time:      04260.69525371
Element set:       6
Inclination:       82.5460 deg
RA of node:       117.9468 deg
Eccentricity:    0.0022640
Arg of perigee:   167.3126 deg
Mean anomaly:     192.8598 deg
Mean motion:   13.83569584 rev/day
Decay rate:        7.5e-07 rev/day^2
Epoch rev:           55775
Checksum:              329

Satellite: OKEAN-4
Catalog number: 23317
Epoch time:      04259.96487469
Element set:    0442
Inclination:      082.5422 deg
RA of node:       153.0310 deg
Eccentricity:    0.0022036
Arg of perigee:   323.7410 deg
Mean anomaly:     036.2309 deg
Mean motion:   14.81880467 rev/day
Decay rate:       4.89e-06 rev/day^2
Epoch rev:           53529
Checksum:              297

Satellite: NOAA-14
Catalog number: 23455
Epoch time:      04260.35508079
Element set:     282
Inclination:       99.1320 deg
RA of node:       297.6635 deg
Eccentricity:    0.0009917
Arg of perigee:    55.2224 deg
Mean anomaly:     304.9865 deg
Mean motion:   14.13488794 rev/day
Decay rate:       2.01e-06 rev/day^2
Epoch rev:           50081
Checksum:              304

Satellite: SICH-1
Catalog number: 23657
Epoch time:      04259.93814241
Element set:    0256
Inclination:      082.5276 deg
RA of node:       293.8601 deg
Eccentricity:    0.0023105
Arg of perigee:   307.2815 deg
Mean anomaly:     052.6291 deg
Mean motion:   14.80915123 rev/day
Decay rate:       4.37e-06 rev/day^2
Epoch rev:           48736
Checksum:              296

Satellite: NOAA-15
Catalog number: 25338
Epoch time:      04260.48217654
Element set:     731
Inclination:       98.5203 deg
RA of node:       271.1009 deg
Eccentricity:    0.0011670
Arg of perigee:    78.9571 deg
Mean anomaly:     281.2938 deg
Mean motion:   14.24451150 rev/day
Decay rate:        9.0e-07 rev/day^2
Epoch rev:           32978
Checksum:              295

Satellite: RESURS
Catalog number: 25394
Epoch time:      04260.61034886
Element set:     902
Inclination:       98.5744 deg
RA of node:       331.1292 deg
Eccentricity:    0.0001050
Arg of perigee:   187.9701 deg
Mean anomaly:     172.1463 deg
Mean motion:   14.24022309 rev/day
Decay rate:        2.0e-07 rev/day^2
Epoch rev:           32151
Checksum:              254

Satellite: FENGYUN1
Catalog number: 25730
Epoch time:      04260.85350461
Element set:     234
Inclination:       98.6075 deg
RA of node:       267.6302 deg
Eccentricity:    0.0014866
Arg of perigee:   157.3257 deg
Mean anomaly:     202.8552 deg
Mean motion:   14.11780254 rev/day
Decay rate:       3.04e-06 rev/day^2
Epoch rev:           27594
Checksum:              287

Satellite: OKEAN-0
Catalog number: 25860
Epoch time:      04259.96903984
Element set:    0265
Inclination:      097.7913 deg
RA of node:       291.4898 deg
Eccentricity:    0.0001890
Arg of perigee:   060.8105 deg
Mean anomaly:     299.3292 deg
Mean motion:   14.73113330 rev/day
Decay rate:       1.81e-06 rev/day^2
Epoch rev:           27763
Checksum:              324

Satellite: NOAA-16
Catalog number: 26536
Epoch time:      04260.45175293
Element set:      26
Inclination:       98.9712 deg
RA of node:       211.9258 deg
Eccentricity:    0.0011349
Arg of perigee:   117.0832 deg
Mean anomaly:     243.1498 deg
Mean motion:   14.12150680 rev/day
Decay rate:       -8.8e-07 rev/day^2
Epoch rev:           20542
Checksum:              289

Satellite: NOAA-17
Catalog number: 27453
Epoch time:      04260.53651936
Element set:      51
Inclination:       98.6934 deg
RA of node:       331.7812 deg
Eccentricity:    0.0012685
Arg of perigee:   127.4820 deg
Mean anomaly:     232.7520 deg
Mean motion:   14.23569504 rev/day
Decay rate:       1.66e-06 rev/day^2
Epoch rev:           11590
Checksum:              294



Read previous mail | Read next mail


 12.06.2026 11:01:02lGo back Go up